[[{"header":{"parameterUnit":"m.s-1","parameterCategory":1,"la1":30.2991,"la2":30.254,"lo1":-89.0895,"lo2":-89.0444,"dy":0.0017,"dx":0.0017,"nx":28,"ny":28,"refTime":"2024-12-22T09:00:00:Z","depth":0,"parameterNumber":2,"parameterNumberName":"U-component_of_WINDS"},"data":[0,0,0,0,0,0,0,0,0,0,0,0,0,0,0,0,0,0,0,0,0,0,0,0,0,0,0,0,0,0,0,0,0,0,0,0,0,0,0,0,0,0,0,0,0,0,0,0,0,0,0,0,0,0,0,0,0,0,-4.0502,-4.0502,0,-4.051,-4.051,-4.0511,-4.0342,-4.0338,-4.0333,-4.0329,-4.034,-4.0344,-4.0349,0,0,0,0,0,0,0,0,0,0,0,0,0,-4.0341,-4.0345,-4.0502,-4.0502,-4.0502,-4.051,-4.0511,-4.0511,-4.0343,-4.0338,-4.0332,-4.0327,-4.0339,-4.0344,-4.0349,0,0,0,0,0,0,0,0,0,0,0,0,0,-4.0387,-4.0347,-4.0502,-4.042,-4.0412,-4.051,-4.0511,-4.0511,-4.0344,-4.0338,-4.0331,-4.0324,-4.0337,-4.0343,-4.035,-4.0528,0,0,-4.0371,-4.0374,0,0,0,0,0,0,0,0,-4.0385,-4.0393,-4.0432,-4.0425,-4.0417,-4.0418,-4.0458,-4.0517,-4.0346,-4.037,-4.0329,-4.0321,-4.0372,-4.0375,-4.0392,-4.0529,-4.0529,-4.0371,-4.0375,-4.0378,-4.038,0,0,0,0,0,0,0,-4.0382,-4.0392,-4.0505,-4.0432,-4.0424,-4.0382,-4.0381,-4.0468,-4.0409,-4.0368,-4.0355,-4.0359,-4.0367,-4.0386,-4.0391,-4.0529,-4.0371,-4.0377,-4.0381,-4.0384,-4.081,-4.0817,0,0,0,0,0,0,-4.0389,-4.039,-4.0505,-4.0505,-4.0384,-4.0391,-4.039,-4.0425,-4.0408,-4.0398,-4.0364,-4.0351,-4.0377,-4.0383,-4.0391,-4.0596,-4.0378,-4.0385,-4.0389,-4.0803,-4.0812,-4.082,0,0,0,0,0,0,-4.0387,-4.0401,-4.0505,-4.0445,-4.0454,-4.0401,-4.0442,-4.0429,-4.0447,-4.0405,-4.0394,-4.0395,-4.0372,-4.0381,-4.0494,-4.0594,-4.0388,-4.0394,-4.0795,-4.0806,-4.0816,-4.1009,0,0,0,0,0,0,-4.0383,-4.0401,-4.0468,-4.0447,-4.0458,-4.0609,-4.0448,-4.0434,-4.0459,-4.0442,-4.0431,-4.0422,-4.0368,-4.0485,-4.0501,-4.0599,-4.0399,-4.0785,-4.08,-4.0812,-4.0994,-4.1025,-4.1053,0,0,0,0,0,-4.0378,-4.0524,-4.0473,-4.0487,-4.0541,-4.0615,-4.0621,-4.0554,-4.0468,-4.0535,-4.0507,-4.0423,-4.0581,-4.0498,-4.0515,-4.0617,-4.0779,-4.0796,-4.0811,-4.0981,-4.1019,-4.1052,0,0,0,0,0,0,-4.0559,-4.0519,-4.0462,-4.0606,-4.0615,-4.0586,-4.0668,-4.0598,-4.0632,-4.0614,-4.0531,-4.053,-4.0657,-4.0648,-4.0557,-4.0787,-4.0665,-4.0685,-4.0788,-4.0824,-4.0853,-4.0851,-4.0405,0,0,0,0,0,-4.0615,-4.0678,-4.064,-4.0771,-4.0778,-4.0723,-4.0753,-4.07,-4.0707,-4.071,-4.0691,-4.0701,-4.0752,-4.0788,-4.0833,-4.0992,-4.0987,-4.1071,-4.11,-4.1124,-4.1142,-4.1224,-4.126,-4.0873,-4.0873,-4.0873,0,0,-4.0733,-4.0719,-4.0764,-4.0806,-4.0807,-4.0874,-4.0727,-4.0805,-4.0853,-4.0722,-4.0826,-4.0814,-4.0819,-4.0956,-4.1015,-4.0952,-4.1248,-4.1145,-4.1165,-4.1169,-4.1244,-4.1281,-4.1314,-4.0884,-4.0882,-4.0881,0,0,-4.098,-4.0977,-4.1084,-4.1087,-4.109,-4.1052,-4.1078,-4.106,-4.1046,-4.115,-4.1052,-4.1109,-4.1201,-4.1207,-4.1223,-4.1473,-4.1396,-4.149,-4.1643,-4.1724,-4.1754,-4.1781,-4.1868,-4.19,-4.1509,-4.151,-4.151,0,-4.1126,-4.1222,-4.1148,-4.1231,-4.1252,-4.1135,-4.1242,-4.125,-4.1268,-4.1285,-4.1215,-4.1326,-4.1321,-4.1457,-4.1518,-4.1535,-4.1561,-4.149,-4.1756,-4.1782,-4.1805,-4.1887,-4.1921,-4.1521,-4.1519,-4.1518,-4.1517,0,-4.14,-4.1468,-4.1554,-4.1573,-4.1604,-4.1699,-4.1639,-4.1679,-4.1625,-4.1595,-4.1702,-4.1692,-4.1733,-4.1761,-4.171,-4.189,-4.1851,-4.177,-4.1645,-4.1855,-4.193,-4.1961,-4.1537,-4.1533,-4.153,-4.1527,0,0,-4.1761,-4.1736,-4.1769,-4.1775,-4.1769,-4.1821,-4.1911,-4.1949,-4.1984,-4.2001,-4.2073,-4.2153,-4.2077,-4.2095,-4.2043,-4.2115,-4.231,-4.2024,-4.2023,-4.2076,-4.2506,-4.2565,-4.2603,-4.226,-4.2265,-4.227,-4.2504,0,-4.1999,-4.2149,-4.2085,-4.2241,-4.2302,-4.2193,-4.227,-4.2276,-4.225,-4.2299,-4.227,-4.2327,-4.2224,-4.2234,-4.23,-4.2273,-4.2395,-4.2255,-4.2325,-4.2329,-4.2325,-4.2642,-4.2705,-4.2927,-4.2534,-4.2539,-4.2542,0,-4.2297,-4.2324,-4.2486,-4.2468,-4.2491,-4.2562,-4.2591,-4.2639,-4.2643,-4.2619,-4.2639,-4.2571,-4.2657,-4.2534,-4.2652,-4.2558,-4.2583,-4.2574,-4.2581,-4.2583,-4.2447,-4.2651,-4.2996,-4.3029,-4.2589,-4.2585,-4.2582,0,-4.254,-4.2618,-4.2724,-4.2733,-4.2715,-4.2768,-4.2763,-4.2759,-4.2786,-4.2812,-4.2828,-4.2865,-4.2885,-4.2915,-4.2859,-4.2775,-4.2983,-4.2856,-4.2965,-4.2967,-4.3012,-4.301,-4.3364,-4.3033,-4.3033,-4.3032,-4.3031,0,-4.2811,-4.2915,-4.2833,-4.2899,-4.3011,-4.2936,-4.3049,-4.3032,-4.303,-4.309,-4.2999,-4.3058,-4.298,-4.3032,-4.2988,-4.3091,-4.3101,-4.3084,-4.3071,-4.3091,-4.3093,-4.3104,-4.3086,-4.3041,-4.3039,-4.3037,-4.3036,0,-4.3102,-4.3051,-4.316,-4.3134,-4.3129,-4.3213,-4.319,-4.325,-4.3218,-4.3295,-4.3309,-4.3259,-4.3315,-4.3261,-4.3315,-4.3285,-4.3422,-4.3388,-4.342,-4.341,-4.352,-4.351,-4.3893,-4.3938,-4.3581,-4.3585,-4.3588,0,-4.3277,-4.3353,-4.3335,-4.3368,-4.3368,-4.3423,-4.3449,-4.3379,-4.3411,-4.342,-4.3478,-4.3525,-4.3559,-4.3653,-4.3622,-4.3661,-4.3626,-4.3757,-4.3631,-4.3648,-4.3625,-4.362,-4.3626,-4.3782,-4.3787,-4.379,-4.3793,0,-4.3592,-4.3563,-4.3604,-4.3637,-4.367,-4.3693,-4.3708,-4.3741,-4.3669,-4.3709,-4.3763,-4.379,-4.3843,-4.3891,-4.3921,-4.3915,-4.3843,-4.3833,-4.386,-4.388,-4.3894,-4.3885,-4.3487,-4.3824,-4.3821,-4.3819,-4.3817,-4.3816,-4.3828,-4.3889,-4.3886,-4.3934,-4.3938,-4.3955,-4.4008,-4.3983,-4.4027,-4.4063,-4.402,-4.4087,-4.4088,-4.412,-4.4124,-4.4175,-4.412,-4.4159,-4.4169,-4.4179,-4.4194,-4.3889,-4.4181,-4.418,-4.4179,-4.4178,-4.4178,0,-4.4135,-4.4127,-4.4173,-4.4196,-4.4235,-4.4162,-4.4176,-4.4212,-4.4272,-4.4278,-4.4313,-4.4376,-4.4422,-4.4394,-4.4433,-4.448,-4.4447,-4.4492,-4.4487,-4.4486,-4.4243,-4.4214,-4.4518,-4.4518,-4.4518,-4.4517,-4.4517,-4.4517,-4.43,-4.44,-4.4371,-4.4472,-4.4463,-4.4527,-4.454,-4.4555,-4.4559,-4.4633,-4.467,-4.4651,-4.4644,-4.4682,-4.4721,-4.4711,-4.4729,-4.4786,-4.4765,-4.4537,-4.4504,-4.4472,-4.4444,-4.4791,-4.4791,-4.5003,-4.5005,-4.5007]},{"header":{"parameterUnit":"m.s-1","parameterCategory":1,"la1":30.2991,"la2":30.254,"lo1":-89.0895,"lo2":-89.0444,"dy":0.0017,"dx":0.0017,"nx":28,"ny":28,"refTime":"2024-12-22T09:00:00:Z","depth":0,"parameterNumber":3,"parameterNumberName":"V-component_of_WINDS"},"data":[0,0,0,0,0,0,0,0,0,0,0,0,0,0,0,0,0,0,0,0,0,0,0,0,0,0,0,0,0,0,0,0,0,0,0,0,0,0,0,0,0,0,0,0,0,0,0,0,0,0,0,0,0,0,0,0,0,0,-1.3631,-1.3631,0,-1.3654,-1.3655,-1.3655,-1.3681,-1.3681,-1.3682,-1.3682,-1.3703,-1.3703,-1.3704,0,0,0,0,0,0,0,0,0,0,0,0,0,-1.3605,-1.3605,-1.3631,-1.3631,-1.3632,-1.3654,-1.3655,-1.3655,-1.3681,-1.3681,-1.3682,-1.3682,-1.3703,-1.3703,-1.3704,0,0,0,0,0,0,0,0,0,0,0,0,0,-1.3621,-1.3605,-1.3631,-1.3647,-1.3649,-1.3654,-1.3655,-1.3655,-1.3681,-1.3681,-1.3682,-1.3682,-1.3703,-1.3703,-1.3704,-1.3694,0,0,-1.3705,-1.3705,0,0,0,0,0,0,0,0,-1.362,-1.3622,-1.3645,-1.3646,-1.3648,-1.3665,-1.3653,-1.3668,-1.368,-1.3668,-1.3682,-1.3683,-1.369,-1.3691,-1.3694,-1.3695,-1.3696,-1.3705,-1.3705,-1.3705,-1.3705,0,0,0,0,0,0,0,-1.3619,-1.3621,-1.364,-1.3645,-1.3647,-1.3652,-1.3655,-1.3656,-1.3676,-1.367,-1.3672,-1.3674,-1.3691,-1.3694,-1.3695,-1.3696,-1.3705,-1.3705,-1.3705,-1.3705,-1.3687,-1.3687,0,0,0,0,0,0,-1.3616,-1.362,-1.3639,-1.3641,-1.3635,-1.3652,-1.3655,-1.3659,-1.3676,-1.3679,-1.3674,-1.3675,-1.3693,-1.3695,-1.3696,-1.3684,-1.3705,-1.3705,-1.3705,-1.3688,-1.3687,-1.3687,0,0,0,0,0,0,-1.3615,-1.3617,-1.3638,-1.3631,-1.3634,-1.3652,-1.3656,-1.3659,-1.3662,-1.3679,-1.3682,-1.3673,-1.3694,-1.3695,-1.3694,-1.3685,-1.3705,-1.3706,-1.3689,-1.3688,-1.3687,-1.3662,0,0,0,0,0,0,-1.3614,-1.3617,-1.3614,-1.3631,-1.3634,-1.3637,-1.3655,-1.3659,-1.3663,-1.3666,-1.3679,-1.3682,-1.3694,-1.3693,-1.3694,-1.3686,-1.3706,-1.369,-1.3688,-1.3687,-1.3663,-1.366,-1.3657,0,0,0,0,0,-1.3613,-1.3606,-1.3614,-1.3616,-1.3632,-1.3637,-1.3639,-1.3654,-1.3662,-1.3659,-1.3669,-1.3682,-1.3686,-1.3693,-1.3694,-1.3686,-1.369,-1.3689,-1.3687,-1.3665,-1.3661,-1.3657,0,0,0,0,0,0,-1.3588,-1.3609,-1.3618,-1.3616,-1.3625,-1.3641,-1.3638,-1.3649,-1.3654,-1.3656,-1.3674,-1.3676,-1.3672,-1.3679,-1.3686,-1.3676,-1.369,-1.3689,-1.3672,-1.3668,-1.3665,-1.3663,-1.3706,0,0,0,0,0,-1.3583,-1.3586,-1.3603,-1.36,-1.3604,-1.362,-1.3623,-1.3633,-1.3642,-1.3646,-1.3656,-1.3663,-1.3666,-1.3668,-1.3671,-1.3664,-1.3667,-1.3659,-1.3656,-1.3653,-1.3652,-1.3647,-1.3643,-1.3682,-1.3682,-1.3682,0,0,-1.3571,-1.3582,-1.3584,-1.3595,-1.3603,-1.3605,-1.3623,-1.3624,-1.3625,-1.3646,-1.3645,-1.3652,-1.3661,-1.3656,-1.3655,-1.3662,-1.3641,-1.3651,-1.3649,-1.3649,-1.3645,-1.3641,-1.3638,-1.3681,-1.3681,-1.3681,0,0,-1.355,-1.356,-1.3558,-1.3565,-1.3576,-1.3587,-1.3586,-1.3601,-1.3606,-1.3606,-1.3621,-1.3621,-1.3626,-1.3632,-1.3635,-1.3614,-1.3625,-1.3615,-1.3598,-1.3593,-1.359,-1.3587,-1.3578,-1.3575,-1.3613,-1.3613,-1.3613,0,-1.3534,-1.3538,-1.3555,-1.3555,-1.3559,-1.3578,-1.3574,-1.358,-1.3592,-1.3593,-1.3601,-1.3607,-1.3615,-1.361,-1.3605,-1.3608,-1.3606,-1.3613,-1.3589,-1.3587,-1.3584,-1.3576,-1.3573,-1.3612,-1.3612,-1.3612,-1.3612,0,-1.3517,-1.3519,-1.3516,-1.3527,-1.353,-1.3528,-1.3543,-1.3544,-1.3554,-1.3563,-1.3561,-1.3571,-1.3576,-1.3576,-1.3585,-1.3572,-1.3576,-1.3586,-1.36,-1.3579,-1.3571,-1.3568,-1.361,-1.361,-1.3611,-1.3611,0,0,-1.3482,-1.3501,-1.3499,-1.3504,-1.3517,-1.3518,-1.3516,-1.3522,-1.3522,-1.3529,-1.3526,-1.353,-1.3539,-1.3542,-1.3553,-1.3548,-1.3529,-1.3559,-1.3559,-1.3552,-1.3513,-1.3504,-1.35,-1.3536,-1.3536,-1.3535,-1.3511,0,-1.3463,-1.3462,-1.3476,-1.347,-1.3471,-1.3488,-1.3486,-1.3493,-1.3501,-1.3502,-1.3511,-1.3512,-1.3525,-1.3527,-1.3523,-1.3532,-1.3521,-1.3534,-1.3533,-1.3532,-1.3529,-1.3496,-1.3488,-1.3465,-1.3509,-1.3508,-1.3508,0,-1.3441,-1.3446,-1.3441,-1.3452,-1.3454,-1.3452,-1.3457,-1.3458,-1.3465,-1.3471,-1.3475,-1.3486,-1.3483,-1.3497,-1.3492,-1.35,-1.3501,-1.3504,-1.3504,-1.3504,-1.3518,-1.3494,-1.3458,-1.3454,-1.3503,-1.3504,-1.3504,0,-1.3414,-1.342,-1.3417,-1.3421,-1.3435,-1.3432,-1.3438,-1.3446,-1.3448,-1.3452,-1.3452,-1.3456,-1.3457,-1.3459,-1.347,-1.3479,-1.3464,-1.3478,-1.3467,-1.3467,-1.3463,-1.3463,-1.3425,-1.3464,-1.3464,-1.3464,-1.3464,0,-1.3391,-1.3387,-1.3405,-1.3404,-1.3398,-1.3413,-1.3408,-1.3415,-1.3421,-1.342,-1.3435,-1.3433,-1.3448,-1.3447,-1.3456,-1.345,-1.3451,-1.3454,-1.3456,-1.3452,-1.3452,-1.3452,-1.3454,-1.3463,-1.3464,-1.3464,-1.3464,0,-1.336,-1.3373,-1.3371,-1.3384,-1.3387,-1.3382,-1.3392,-1.339,-1.3399,-1.3396,-1.3397,-1.3409,-1.3409,-1.3421,-1.3423,-1.3428,-1.3418,-1.3423,-1.3415,-1.3417,-1.3404,-1.3405,-1.3365,-1.336,-1.3403,-1.3403,-1.3403,0,-1.3345,-1.3341,-1.3354,-1.3354,-1.3359,-1.3359,-1.3361,-1.3375,-1.3376,-1.3382,-1.3379,-1.338,-1.3382,-1.338,-1.3389,-1.339,-1.3395,-1.338,-1.3395,-1.339,-1.3393,-1.3392,-1.3391,-1.3377,-1.3377,-1.3376,-1.3376,0,-1.3314,-1.332,-1.3322,-1.3326,-1.3327,-1.3331,-1.3335,-1.3334,-1.3349,-1.3349,-1.3349,-1.335,-1.3352,-1.3352,-1.3354,-1.3359,-1.3369,-1.3371,-1.3368,-1.3364,-1.3359,-1.336,-1.3406,-1.3372,-1.3372,-1.3373,-1.3373,-1.3373,-1.329,-1.3287,-1.3295,-1.3296,-1.3301,-1.3304,-1.3302,-1.331,-1.331,-1.3313,-1.3321,-1.3319,-1.3324,-1.3329,-1.3332,-1.3329,-1.3336,-1.3332,-1.3331,-1.333,-1.3327,-1.336,-1.333,-1.333,-1.333,-1.333,-1.333,0,-1.3259,-1.3264,-1.3266,-1.3271,-1.3271,-1.3282,-1.3286,-1.3286,-1.3284,-1.3288,-1.3289,-1.3288,-1.3288,-1.3296,-1.3296,-1.3293,-1.3297,-1.3292,-1.3292,-1.3292,-1.3322,-1.3323,-1.3288,-1.3288,-1.3288,-1.3288,-1.3288,-1.3288,-1.3243,-1.3239,-1.3245,-1.3242,-1.3247,-1.3246,-1.3247,-1.325,-1.3253,-1.3251,-1.3251,-1.3257,-1.3262,-1.3262,-1.3262,-1.3264,-1.3263,-1.3256,-1.326,-1.3287,-1.3291,-1.3295,-1.3296,-1.3256,-1.3256,-1.323,-1.323,-1.323]}]]